Retour au catalogue

SCOUT B DEB

LostUNKNOWN
NORAD 28801·DEBRIS·🇺🇸 United States

Lancé Aug 10, 1965 depuis Wallops Flight Facility

Loading…

Prochains Passages (prochaines 24 heures)

TLE

PériméSource: Space-Track

Époque: Jul 8, 2017, 03:05 UTC

1 28801U 65063L   17189.12861206 -.00000519  00000-0 -30533-2 0  9994
2 28801  69.2437  90.5453 0716895   0.0679  63.0426 11.95259648551817

Suivez SCOUT B DEB en temps réel avec AllMySat

Download on the App Store